sat.trackr.live / text

‹ back to catalog

STARLINK-32457

NORAD 61717 · 2024-196L

PAYLOAD ACTIVE UNKNOWN

§ Identity

Operator
Country
US
Launch date
2024-10-30
Launch site
AFETR
Launch vehicle
Mass (kg)
RCS (m²)

Purposes: comms

External: N2YO · Heavens-Above · Gunter

§ Orbital elements

Epoch: 2026-09-21T07:16:56.594784Z

Period
93.85 min
Inclination
53.1599°
Eccentricity
0.0001640
Mean motion
15.34394646 rev/d
Perigee alt
461.6 km
Apogee alt
463.8 km
Semi-major
6,840.9 km
B*
2.8993e-5
RAAN
270.0593°
Arg perigee
88.3029°
Mean anomaly
271.8162°
Rev number
10,714

§ Raw data

STARLINK-324571 61717U 24196L   26264.30343281  .00000603  00000+0  28993-4 0  99912 61717  53.1599 270.0593 0001640  88.3029 271.8162 15.34394646107148

JSON: /api/v1/satellites/61717 · /tle

For live sub-satellite position, see the globe view (requires WebGL).

§ Visibility from observer

Set your observer location to see the next 7 days of passes ≥ 10°. The values pass through the URL so the page stays shareable.

No JS? Fill the form by hand. The geolocation button needs JavaScript.